| time (UTC) | temp F | wind direction | speed knots | gust knots | rain 1hr in | rain 24hr in | rain mn in | humidity % | barometer mb |
| 20260906122507 | 83 | 234 | 17.4 | 19.1 | 0.00 | 0.00 | 0.00 | 74 | 1021.9 |
| 20260906122013 | 84 | 237 | 14.8 | 19.1 | 0.00 | 0.00 | 0.00 | 75 | 1021.9 |
| 20260906121523 | 83 | 227 | 14.8 | 19.1 | 0.00 | 0.00 | 0.00 | 76 | 1021.9 |
| 20260906121018 | 83 | 227 | 17.4 | 19.1 | 0.00 | 0.00 | 0.00 | 74 | 1021.9 |
| 20260906120513 | 83 | 236 | 12.2 | 17.4 | 0.00 | 0.00 | 0.00 | 76 | 1022.0 |
| 20260906120040 | 83 | 235 | 13.9 | 17.4 | 0.00 | 0.00 | 0.00 | 78 | 1022.1 |
| 20260906115518 | 83 | 235 | 13.9 | 17.4 | 0.00 | 0.00 | 0.00 | 78 | 1022.0 |
| 20260906115017 | 83 | 239 | 15.6 | 17.4 | 0.00 | 0.00 | 0.00 | 78 | 1022.1 |
| 20260906114547 | 83 | 221 | 14.8 | 16.5 | 0.00 | 0.00 | 0.00 | 80 | 1022.1 |
| 20260906114003 | 83 | 232 | 13.0 | 16.5 | 0.00 | 0.00 | 0.00 | 80 | 1022.1 |
| 20260906113518 | 83 | 213 | 13.9 | 16.5 | 0.00 | 0.00 | 0.00 | 79 | 1022.1 |
| 20260906113012 | 83 | 226 | 15.6 | 18.2 | 0.00 | 0.00 | 0.00 | 79 | 1022.0 |
| 20260906112509 | 83 | 235 | 16.5 | 18.2 | 0.00 | 0.00 | 0.00 | 78 | 1022.1 |
| 20260906112008 | 84 | 226 | 13.9 | 16.5 | 0.00 | 0.00 | 0.00 | 77 | 1022.1 |
| 20260906111537 | 84 | 217 | 13.9 | 15.6 | 0.00 | 0.00 | 0.00 | 77 | 1022.2 |
| 20260906111016 | 85 | 225 | 14.8 | 16.5 | 0.00 | 0.00 | 0.00 | 75 | 1022.3 |
| 20260906110512 | 84 | 210 | 13.9 | 16.5 | 0.00 | 0.00 | 0.00 | 77 | 1022.3 |
| 20260906110022 | 84 | 229 | 11.3 | 15.6 | 0.00 | 0.00 | 0.00 | 78 | 1022.4 |
| 20260906105518 | 84 | 227 | 13.0 | 14.8 | 0.00 | 0.00 | 0.00 | 76 | 1022.5 |
| 20260906105019 | 84 | 224 | 12.2 | 13.9 | 0.00 | 0.00 | 0.00 | 76 | 1022.5 |
| 20260906104540 | 84 | 209 | 11.3 | 12.2 | 0.00 | 0.00 | 0.00 | 76 | 1022.5 |
| 20260906104017 | 84 | 206 | 9.6 | 11.3 | 0.00 | 0.00 | 0.00 | 76 | 1022.5 |
| 20260906103517 | 83 | 225 | 8.7 | 11.3 | 0.00 | 0.00 | 0.00 | 76 | 1022.6 |
| 20260906103037 | 83 | 215 | 7.8 | 12.2 | 0.00 | 0.00 | 0.00 | 76 | 1022.6 |
| 20260906102520 | 83 | 215 | 8.7 | 11.3 | 0.00 | 0.00 | 0.00 | 75 | 1022.7 |
| 20260906102008 | 83 | 223 | 9.6 | 12.2 | 0.00 | 0.00 | 0.00 | 75 | 1022.7 |
| 20260906101516 | 83 | 215 | 8.7 | 12.2 | 0.00 | 0.00 | 0.00 | 76 | 1022.7 |
| 20260906101019 | 83 | 221 | 9.6 | 11.3 | 0.00 | 0.00 | 0.00 | 78 | 1022.7 |
| 20260906100512 | 83 | 215 | 8.7 | 13.0 | 0.00 | 0.00 | 0.00 | 79 | 1022.7 |
| 20260906100025 | 82 | 216 | 7.8 | 13.0 | 0.00 | 0.00 | 0.00 | 80 | 1022.8 |
| 20260906095515 | 83 | 192 | 8.7 | 11.3 | 0.00 | 0.00 | 0.00 | 79 | 1022.9 |
| 20260906095013 | 82 | 211 | 8.7 | 13.9 | 0.00 | 0.00 | 0.00 | 79 | 1023.0 |
| 20260906094554 | 82 | 222 | 8.7 | 13.9 | 0.00 | 0.00 | 0.00 | 80 | 1022.9 |
| 20260906094012 | 82 | 202 | 9.6 | 11.3 | 0.00 | 0.00 | 0.00 | 80 | 1022.9 |
| 20260906093516 | 82 | 221 | 8.7 | 12.2 | 0.00 | 0.00 | 0.00 | 80 | 1022.9 |
| 20260906093045 | 82 | 219 | 8.7 | 12.2 | 0.00 | 0.00 | 0.00 | 81 | 1022.9 |
| 20260906092514 | 82 | 221 | 8.7 | 11.3 | 0.00 | 0.00 | 0.00 | 81 | 1022.9 |
| 20260906092020 | 81 | 202 | 7.0 | 10.4 | 0.00 | 0.00 | 0.00 | 82 | 1023.0 |
| 20260906091533 | 81 | 200 | 7.0 | 10.4 | 0.00 | 0.00 | 0.00 | 83 | 1022.9 |
| 20260906091020 | 81 | 205 | 7.8 | 9.6 | 0.00 | 0.00 | 0.00 | 83 | 1022.9 |
| 20260906090508 | 81 | 195 | 7.0 | 10.4 | 0.00 | 0.00 | 0.00 | 82 | 1023.0 |
| 20260906090024 | 81 | 202 | 7.0 | 9.6 | 0.00 | 0.00 | 0.00 | 82 | 1023.1 |
| 20260906085510 | 81 | 195 | 7.0 | 9.6 | 0.00 | 0.00 | 0.00 | 82 | 1023.1 |
| 20260906085017 | 81 | 202 | 6.1 | 9.6 | 0.00 | 0.00 | 0.00 | 82 | 1023.1 |
| 20260906084534 | 81 | 214 | 6.1 | 11.3 | 0.00 | 0.00 | 0.00 | 82 | 1023.1 |
| 20260906084015 | 81 | 194 | 6.1 | 10.4 | 0.00 | 0.00 | 0.00 | 82 | 1023.2 |
| 20260906083513 | 81 | 190 | 5.2 | 8.7 | 0.00 | 0.00 | 0.00 | 82 | 1023.1 |
| 20260906083043 | 81 | 186 | 5.2 | 9.6 | 0.00 | 0.00 | 0.00 | 83 | 1023.1 |
| 20260906082516 | 80 | 182 | 7.0 | 9.6 | 0.00 | 0.00 | 0.00 | 84 | 1023.2 |
| 20260906082020 | 80 | 173 | 4.3 | 9.6 | 0.00 | 0.00 | 0.00 | 83 | 1023.1 |
| 20260906081537 | 80 | 181 | 3.5 | 9.6 | 0.00 | 0.00 | 0.00 | 81 | 1023.1 |
| 20260906081017 | 81 | 182 | 5.2 | 7.8 | 0.00 | 0.00 | 0.00 | 81 | 1023.1 |
| 20260906080508 | 80 | 199 | 5.2 | 7.8 | 0.00 | 0.00 | 0.00 | 84 | 1023.1 |
| 20260906080018 | 79 | 194 | 3.5 | 8.7 | 0.00 | 0.00 | 0.00 | 84 | 1023.1 |
| 20260906075517 | 80 | 176 | 3.5 | 7.8 | 0.00 | 0.00 | 0.00 | 83 | 1023.1 |
| 20260906075017 | 80 | 192 | 3.5 | 9.6 | 0.00 | 0.00 | 0.00 | 82 | 1023.2 |
| 20260906074534 | 80 | 175 | 4.3 | 9.6 | 0.00 | 0.00 | 0.00 | 82 | 1023.2 |
| 20260906074016 | 80 | 169 | 5.2 | 8.7 | 0.00 | 0.00 | 0.00 | 82 | 1023.1 |
| 20260906073514 | 80 | 191 | 4.3 | 8.7 | 0.00 | 0.00 | 0.00 | 82 | 1023.1 |
| 20260906073030 | 80 | 163 | 5.2 | 8.7 | 0.00 | 0.00 | 0.00 | 81 | 1023.1 |
| 20260906072515 | 81 | 166 | 5.2 | 8.7 | 0.00 | 0.00 | 0.00 | 79 | 1023.0 |
| 20260906072003 | 80 | 187 | 3.5 | 7.0 | 0.00 | 0.00 | 0.00 | 80 | 1023.0 |
| 20260906071530 | 80 | 181 | 3.5 | 7.0 | 0.00 | 0.00 | 0.00 | 83 | 1023.0 |
| 20260906071004 | 80 | 180 | 3.5 | 6.1 | 0.00 | 0.00 | 0.00 | 80 | 1023.0 |
| 20260906070509 | 80 | 167 | 3.5 | 5.2 | 0.00 | 0.00 | 0.00 | 81 | 1023.1 |
| 20260906070017 | 79 | 174 | 3.5 | 5.2 | 0.00 | 0.00 | 0.00 | 81 | 1023.2 |
| 20260906065510 | 79 | 186 | 3.5 | 7.0 | 0.00 | 0.00 | 0.00 | 82 | 1023.2 |
| 20260906065011 | 80 | 194 | 3.5 | 7.0 | 0.00 | 0.00 | 0.00 | 81 | 1023.2 |
| 20260906064534 | 80 | 202 | 4.3 | 7.8 | 0.00 | 0.00 | 0.00 | 81 | 1023.2 |
| 20260906064013 | 80 | 179 | 3.5 | 7.8 | 0.00 | 0.00 | 0.00 | 81 | 1023.0 |
| 20260906063513 | 80 | 174 | 4.3 | 7.0 | 0.00 | 0.00 | 0.00 | 80 | 1023.0 |
| 20260906063039 | 80 | 163 | 3.5 | 7.0 | 0.00 | 0.00 | 0.00 | 81 | 1023.0 |
| 20260906062518 | 80 | 171 | 4.3 | 7.0 | 0.00 | 0.00 | 0.00 | 80 | 1023.0 |
| 20260906062018 | 79 | 153 | 3.5 | 7.0 | 0.00 | 0.00 | 0.00 | 82 | 1022.9 |
| 20260906061532 | 80 | 138 | 3.5 | 7.0 | 0.00 | 0.00 | 0.00 | 81 | 1022.8 |
| 20260906061015 | 80 | 93 | 2.6 | 7.0 | 0.00 | 0.00 | 0.00 | 81 | 1022.9 |
| 20260906060506 | 79 | 138 | 3.5 | 7.0 | 0.00 | 0.00 | 0.00 | 81 | 1022.9 |
| 20260906060035 | 79 | 136 | 3.5 | 7.8 | 0.00 | 0.00 | 0.00 | 80 | 1022.9 |
| 20260906055510 | 80 | 111 | 5.2 | 7.8 | 0.00 | 0.00 | 0.00 | 79 | 1022.9 |
| 20260906055007 | 81 | 102 | 3.5 | 5.2 | 0.00 | 0.00 | 0.00 | 79 | 1022.8 |
| 20260906054541 | 80 | 69 | 1.7 | 5.2 | 0.00 | 0.00 | 0.00 | 79 | 1022.8 |
| 20260906054013 | 81 | 107 | 2.6 | 4.3 | 0.00 | 0.00 | 0.00 | 76 | 1022.9 |
| 20260906053509 | 84 | 158 | 1.7 | 4.3 | 0.00 | 0.00 | 0.00 | 72 | 1022.9 |
| 20260906053039 | 83 | 79 | 1.7 | 4.3 | 0.00 | 0.00 | 0.00 | 72 | 1022.9 |
| 20260906052515 | 83 | 85 | 1.7 | 4.3 | 0.00 | 0.00 | 0.00 | 74 | 1022.9 |
| 20260906052019 | 82 | 15 | 2.6 | 3.5 | 0.00 | 0.00 | 0.00 | 75 | 1022.8 |
| 20260906051541 | 83 | 59 | 1.7 | 3.5 | 0.00 | 0.00 | 0.00 | 74 | 1022.7 |
| 20260906051015 | 83 | 51 | 0.9 | 3.5 | 0.00 | 0.00 | 0.00 | 70 | 1022.7 |
| 20260906050515 | 83 | 63 | 0.9 | 4.3 | 0.00 | 0.00 | 0.00 | 73 | 1022.7 |
| 20260906050038 | 83 | 45 | 1.7 | 4.3 | 0.00 | 0.00 | 0.00 | 73 | 1022.6 |
| 20260906045520 | 82 | 35 | 1.7 | 3.5 | 0.00 | 0.00 | 0.00 | 76 | 1022.7 |
| 20260906045018 | 82 | 39 | 1.7 | 3.5 | 0.00 | 0.00 | 0.00 | 76 | 1022.6 |
| 20260906044533 | 82 | 57 | 1.7 | 3.5 | 0.00 | 0.00 | 0.00 | 77 | 1022.6 |
| 20260906044015 | 81 | 42 | 0.9 | 4.3 | 0.00 | 0.00 | 0.00 | 79 | 1022.6 |
| 20260906043520 | 81 | 351 | 1.7 | 4.3 | 0.00 | 0.00 | 0.00 | 80 | 1022.7 |
| 20260906043036 | 80 | 17 | 1.7 | 4.3 | 0.00 | 0.00 | 0.00 | 79 | 1022.6 |
| 20260906042518 | 80 | 340 | 2.6 | 4.3 | 0.00 | 0.00 | 0.00 | 78 | 1022.6 |
| 20260906042003 | 80 | 342 | 2.6 | 4.3 | 0.00 | 0.00 | 0.00 | 78 | 1022.6 |
| 20260906041505 | 79 | 348 | 3.5 | 5.2 | 0.00 | 0.00 | 0.00 | 77 | 1022.5 |
| 20260906041002 | 79 | 360 | 3.5 | 5.2 | 0.00 | 0.00 | 0.00 | 78 | 1022.4 |
| 20260906040502 | 79 | 337 | 3.5 | 5.2 | 0.00 | 0.00 | 0.00 | 78 | 1022.5 |
| 20260906040013 | 79 | 350 | 3.5 | 5.2 | 0.00 | 0.00 | 0.00 | 78 | 1022.5 |
| 20260906035502 | 79 | 352 | 3.5 | 5.2 | 0.00 | 0.00 | 0.00 | 77 | 1022.4 |
| 20260906035004 | 79 | 344 | 2.6 | 5.2 | 0.00 | 0.00 | 0.00 | 77 | 1022.5 |
| 20260906034506 | 79 | 360 | 2.6 | 4.3 | 0.00 | 0.00 | 0.00 | 78 | 1022.3 |
| 20260906034004 | 79 | 352 | 2.6 | 4.3 | 0.00 | 0.00 | 0.00 | 75 | 1022.4 |
| 20260906033503 | 80 | 352 | 1.7 | 3.5 | 0.00 | 0.00 | 0.00 | 76 | 1022.4 |
| 20260906033004 | 80 | 57 | 0.9 | 3.5 | 0.00 | 0.00 | 0.00 | 76 | 1022.3 |
| 20260906032503 | 80 | 9 | 0.9 | 3.5 | 0.00 | 0.00 | 0.00 | 78 | 1022.3 |
| 20260906032003 | 79 | 348 | 1.7 | 6.1 | 0.00 | 0.00 | 0.00 | 78 | 1022.3 |
| 20260906031501 | 79 | 5 | 2.6 | 6.1 | 0.00 | 0.00 | 0.00 | 78 | 1022.2 |
| 20260906031003 | 79 | 345 | 2.6 | 7.0 | 0.00 | 0.00 | 0.00 | 77 | 1022.2 |
| 20260906030503 | 79 | 51 | 2.6 | 7.0 | 0.00 | 0.00 | 0.00 | 77 | 1022.1 |
| 20260906030009 | 79 | 32 | 2.6 | 5.2 | 0.00 | 0.00 | 0.00 | 76 | 1022.2 |
| 20260906025501 | 80 | 339 | 2.6 | 7.8 | 0.00 | 0.00 | 0.00 | 77 | 1022.2 |
| 20260906025003 | 80 | 42 | 3.5 | 7.8 | 0.00 | 0.00 | 0.00 | 78 | 1022.1 |
| 20260906024517 | 80 | 41 | 2.6 | 4.3 | 0.00 | 0.00 | 0.00 | 77 | 1022.1 |
| 20260906024001 | 80 | 352 | 0.9 | 4.3 | 0.00 | 0.00 | 0.00 | 77 | 1022.0 |
| 20260906023505 | 80 | 331 | 2.6 | 4.3 | 0.00 | 0.00 | 0.00 | 78 | 1021.9 |
| 20260906023005 | 80 | 327 | 3.5 | 4.3 | 0.00 | 0.00 | 0.00 | 75 | 1021.9 |
| 20260906022502 | 80 | 351 | 2.6 | 4.3 | 0.00 | 0.00 | 0.00 | 75 | 1021.9 |
| 20260906022002 | 80 | 340 | 3.5 | 4.3 | 0.00 | 0.00 | 0.00 | 73 | 1021.9 |
| 20260906021507 | 80 | 347 | 2.6 | 3.5 | 0.00 | 0.00 | 0.00 | 72 | 1022.0 |
| 20260906021003 | 80 | 345 | 1.7 | 3.5 | 0.00 | 0.00 | 0.00 | 73 | 1022.0 |
| 20260906020502 | 80 | 346 | 0.9 | 4.3 | 0.00 | 0.00 | 0.00 | 73 | 1021.9 |
| 20260906020006 | 80 | 323 | 2.6 | 4.3 | 0.00 | 0.00 | 0.00 | 72 | 1021.9 |
| 20260906015503 | 81 | 352 | 0.9 | 3.5 | 0.00 | 0.00 | 0.00 | 75 | 1021.9 |
| 20260906015003 | 80 | 342 | 1.7 | 3.5 | 0.00 | 0.00 | 0.00 | 73 | 1021.9 |
| 20260906014505 | 80 | 5 | 1.7 | 3.5 | 0.00 | 0.00 | 0.00 | 72 | 1021.9 |
| 20260906014003 | 80 | 348 | 0.9 | 2.6 | 0.00 | 0.00 | 0.00 | 74 | 1021.9 |
| 20260906013503 | 80 | 348 | 0.9 | 2.6 | 0.00 | 0.00 | 0.00 | 74 | 1021.9 |
| 20260906013020 | 80 | 344 | 1.7 | 5.2 | 0.00 | 0.00 | 0.00 | 73 | 1021.9 |
| 20260906012505 | 80 | 347 | 2.6 | 5.2 | 0.00 | 0.00 | 0.00 | 73 | 1022.0 |
| 20260906012003 | 80 | 360 | 2.6 | 4.3 | 0.00 | 0.00 | 0.00 | 73 | 1021.9 |
| 20260906011505 | 80 | 347 | 2.6 | 4.3 | 0.00 | 0.00 | 0.00 | 73 | 1021.8 |
| 20260906011003 | 80 | 360 | 2.6 | 4.3 | 0.00 | 0.00 | 0.00 | 73 | 1021.9 |
| 20260906010502 | 79 | 5 | 2.6 | 4.3 | 0.00 | 0.00 | 0.00 | 73 | 1021.9 |
| 20260906010004 | 80 | 320 | 1.7 | 3.5 | 0.00 | 0.00 | 0.00 | 73 | 1021.9 |
| 20260906005505 | 80 | 342 | 0.9 | 3.5 | 0.00 | 0.00 | 0.00 | 75 | 1021.9 |
| 20260906005003 | 80 | 352 | 0.9 | 3.5 | 0.00 | 0.00 | 0.00 | 77 | 1021.9 |
| 20260906004506 | 80 | 350 | 2.6 | 3.5 | 0.00 | 0.00 | 0.00 | 75 | 1021.9 |
| 20260906004004 | 80 | 351 | 0.9 | 3.5 | 0.00 | 0.00 | 0.00 | 77 | 1021.9 |
| 20260906003504 | 80 | 346 | 1.7 | 3.5 | 0.00 | 0.00 | 0.00 | 76 | 1021.9 |
| 20260906003004 | 81 | 350 | 1.7 | 3.5 | 0.00 | 0.00 | 0.00 | 76 | 1021.9 |
| 20260906002502 | 81 | 350 | 0.9 | 2.6 | 0.00 | 0.00 | 0.00 | 78 | 1021.9 |
| 20260906002001 | 80 | 314 | 0.0 | 4.3 | 0.00 | 0.00 | 0.00 | 80 | 1021.9 |
| 20260906001508 | 80 | 348 | 2.6 | 4.3 | 0.00 | 0.00 | 0.00 | 79 | 1022.0 |
| 20260906001003 | 79 | 360 | 3.5 | 4.3 | 0.00 | 0.00 | 0.00 | 77 | 1022.0 |
| 20260906000504 | 80 | 360 | 2.6 | 3.5 | 0.00 | 0.00 | 0.00 | 76 | 1021.9 |
| 20260906000009 | 81 | 351 | 0.9 | 2.6 | 0.00 | 0.00 | 0.00 | 78 | 1021.9 |
| 20260905235502 | 80 | 350 | 0.9 | 3.5 | 0.00 | 0.00 | 0.00 | 79 | 1021.8 |
| 20260905235003 | 80 | 300 | 1.7 | 4.3 | 0.00 | 0.00 | 0.00 | 79 | 1021.9 |
| 20260905234505 | 80 | 5 | 2.6 | 4.3 | 0.00 | 0.00 | 0.00 | 77 | 1021.9 |
| 20260905234003 | 80 | 360 | 2.6 | 3.5 | 0.00 | 0.00 | 0.00 | 77 | 1021.9 |
| 20260905233503 | 81 | 352 | 1.7 | 3.5 | 0.00 | 0.00 | 0.00 | 76 | 1022.0 |
| 20260905233010 | 81 | 352 | 1.7 | 3.5 | 0.00 | 0.00 | 0.00 | 75 | 1021.9 |
| 20260905232504 | 81 | 325 | 0.9 | 7.0 | 0.00 | 0.00 | 0.00 | 75 | 1021.9 |
| 20260905232002 | 80 | 5 | 1.7 | 7.0 | 0.00 | 0.00 | 0.00 | 76 | 1022.0 |
| 20260905231508 | 80 | 340 | 5.2 | 7.0 | 0.00 | 0.00 | 0.00 | 74 | 1022.0 |
| 20260905231003 | 80 | 330 | 4.3 | 7.0 | 0.00 | 0.00 | 0.00 | 73 | 1022.0 |
| 20260905230504 | 80 | 352 | 3.5 | 6.1 | 0.00 | 0.00 | 0.00 | 74 | 1022.0 |
| 20260905230010 | 80 | 5 | 4.3 | 6.1 | 0.00 | 0.00 | 0.00 | 74 | 1022.0 |
| 20260905225505 | 80 | 352 | 4.3 | 5.2 | 0.00 | 0.00 | 0.00 | 75 | 1022.0 |
| 20260905225002 | 80 | 348 | 4.3 | 5.2 | 0.00 | 0.00 | 0.00 | 76 | 1022.0 |
| 20260905224507 | 80 | 338 | 2.6 | 5.2 | 0.00 | 0.00 | 0.00 | 77 | 1022.0 |
| 20260905224002 | 80 | 343 | 3.5 | 7.0 | 0.00 | 0.00 | 0.00 | 78 | 1022.0 |
| 20260905223504 | 80 | 327 | 5.2 | 7.8 | 0.00 | 0.00 | 0.00 | 77 | 1022.0 |
| 20260905223010 | 76 | 348 | 4.3 | 7.8 | 0.00 | 0.00 | 0.00 | 83 | 1022.1 |
| 20260905222504 | 76 | 351 | 4.3 | 7.0 | 0.00 | 0.00 | 0.00 | 83 | 1022.1 |
| 20260905222004 | 76 | 15 | 3.5 | 4.3 | 0.00 | 0.00 | 0.00 | 83 | 1022.1 |
| 20260905221508 | 76 | 325 | 0.9 | 4.3 | 0.00 | 0.00 | 0.00 | 83 | 1022.2 |
| 20260905221006 | 76 | 348 | 1.7 | 6.1 | 0.00 | 0.00 | 0.00 | 83 | 1022.2 |
| 20260905220505 | 76 | 20 | 1.7 | 6.1 | 0.00 | 0.00 | 0.00 | 83 | 1022.3 |
| 20260905220012 | 76 | 17 | 3.5 | 7.0 | 0.00 | 0.00 | 0.00 | 83 | 1022.3 |
| 20260905215504 | 76 | 12 | 4.3 | 7.8 | 0.00 | 0.00 | 0.00 | 83 | 1022.3 |
| 20260905215004 | 77 | 23 | 4.3 | 7.8 | 0.00 | 0.00 | 0.00 | 83 | 1022.3 |
| 20260905214511 | 77 | 336 | 4.3 | 5.2 | 0.00 | 0.00 | 0.00 | 83 | 1022.2 |
| 20260905214006 | 77 | 350 | 2.6 | 4.3 | 0.00 | 0.00 | 0.00 | 83 | 1022.3 |
| 20260905213506 | 78 | 360 | 1.7 | 4.3 | 0.00 | 0.00 | 0.00 | 82 | 1022.3 |
| 20260905213009 | 78 | 338 | 2.6 | 4.3 | 0.00 | 0.00 | 0.00 | 82 | 1022.3 |
| 20260905212505 | 78 | 350 | 0.9 | 1.7 | 0.00 | 0.00 | 0.00 | 82 | 1022.3 |
| 20260905212004 | 78 | 339 | 0.0 | 0.9 | 0.00 | 0.00 | 0.00 | 82 | 1022.3 |
| 20260905211508 | 79 | 330 | 0.0 | 1.7 | 0.00 | 0.00 | 0.00 | 83 | 1022.4 |
| 20260905211008 | 79 | 341 | 0.0 | 3.5 | 0.00 | 0.00 | 0.00 | 83 | 1022.6 |
| 20260905210504 | 79 | 348 | 1.7 | 3.5 | 0.00 | 0.00 | 0.00 | 83 | 1022.5 |
| 20260905210012 | 79 | 45 | 1.7 | 4.3 | 0.00 | 0.00 | 0.00 | 83 | 1022.6 |
| 20260905205506 | 79 | 10 | 1.7 | 7.8 | 0.00 | 0.00 | 0.00 | 83 | 1022.6 |
| 20260905205008 | 78 | 26 | 3.5 | 7.8 | 0.00 | 0.00 | 0.00 | 83 | 1022.6 |
| 20260905204520 | 78 | 22 | 4.3 | 8.7 | 0.00 | 0.00 | 0.00 | 83 | 1022.7 |
| 20260905204008 | 78 | 22 | 5.2 | 8.7 | 0.00 | 0.00 | 0.00 | 83 | 1022.7 |
| 20260905203507 | 78 | 352 | 4.3 | 7.8 | 0.00 | 0.00 | 0.00 | 83 | 1022.7 |
| 20260905203012 | 78 | 336 | 4.3 | 7.8 | 0.00 | 0.00 | 0.00 | 83 | 1022.7 |
| 20260905202506 | 78 | 19 | 5.2 | 7.8 | 0.00 | 0.00 | 0.00 | 83 | 1022.6 |
| 20260905202007 | 78 | 5 | 2.6 | 7.0 | 0.00 | 0.00 | 0.00 | 83 | 1022.6 |
| 20260905201513 | 78 | 23 | 3.5 | 7.0 | 0.00 | 0.00 | 0.00 | 83 | 1022.6 |
| 20260905201006 | 78 | 348 | 2.6 | 5.2 | 0.00 | 0.00 | 0.00 | 84 | 1022.6 |
| 20260905200508 | 78 | 30 | 1.7 | 4.3 | 0.00 | 0.00 | 0.00 | 84 | 1022.6 |
| 20260905200013 | 78 | 338 | 2.6 | 6.1 | 0.00 | 0.00 | 0.00 | 84 | 1022.6 |
| 20260905195508 | 78 | 19 | 3.5 | 6.1 | 0.00 | 0.00 | 0.00 | 84 | 1022.6 |
| 20260905195011 | 78 | 12 | 3.5 | 5.2 | 0.00 | 0.00 | 0.00 | 84 | 1022.5 |
| 20260905194516 | 78 | 360 | 2.6 | 6.1 | 0.00 | 0.00 | 0.00 | 83 | 1022.6 |
| 20260905194006 | 78 | 17 | 2.6 | 6.1 | 0.00 | 0.00 | 0.00 | 83 | 1022.5 |
| 20260905193506 | 78 | 26 | 2.6 | 4.3 | 0.00 | 0.00 | 0.00 | 83 | 1022.5 |
| 20260905193015 | 78 | 350 | 2.6 | 4.3 | 0.00 | 0.00 | 0.00 | 83 | 1022.5 |
| 20260905192512 | 78 | 360 | 3.5 | 4.3 | 0.00 | 0.00 | 0.00 | 83 | 1022.5 |
| 20260905192009 | 79 | 14 | 0.9 | 2.6 | 0.00 | 0.00 | 0.00 | 83 | 1022.5 |
| 20260905191516 | 79 | 13 | 0.0 | 2.6 | 0.00 | 0.00 | 0.00 | 82 | 1022.5 |
| 20260905191010 | 79 | 43 | 0.0 | 0.9 | 0.00 | 0.00 | 0.00 | 82 | 1022.5 |
| 20260905190506 | 79 | 30 | 0.0 | 1.7 | 0.00 | 0.00 | 0.00 | 82 | 1022.6 |
| 20260905190015 | 79 | 5 | 0.0 | 1.7 | 0.00 | 0.00 | 0.00 | 82 | 1022.6 |
| 20260905185507 | 80 | 17 | 0.0 | 0.9 | 0.00 | 0.00 | 0.00 | 82 | 1022.7 |
| 20260905185003 | 80 | 17 | 0.0 | 0.0 | 0.00 | 0.00 | 0.00 | 82 | 1022.7 |
| 20260905184522 | 80 | 19 | 0.0 | 0.0 | 0.00 | 0.00 | 0.00 | 81 | 1022.7 |
| 20260905184008 | 80 | 20 | 0.0 | 0.0 | 0.00 | 0.00 | 0.00 | 81 | 1022.7 |
| 20260905183507 | 80 | 20 | 0.0 | 0.0 | 0.00 | 0.00 | 0.00 | 81 | 1022.7 |
| 20260905183018 | 80 | 27 | 0.0 | 0.0 | 0.00 | 0.00 | 0.00 | 81 | 1022.6 |
| 20260905182508 | 81 | 34 | 0.0 | 0.0 | 0.00 | 0.00 | 0.00 | 80 | 1022.6 |
| 20260905182008 | 81 | 108 | 0.0 | 0.0 | 0.00 | 0.00 | 0.00 | 80 | 1022.6 |
| 20260905181520 | 81 | 109 | 0.0 | 0.0 | 0.00 | 0.00 | 0.00 | 80 | 1022.6 |
| 20260905181005 | 82 | 116 | 0.0 | 0.9 | 0.00 | 0.00 | 0.00 | 80 | 1022.6 |
| 20260905180510 | 82 | 144 | 0.0 | 0.9 | 0.00 | 0.00 | 0.00 | 81 | 1022.5 |
| 20260905180018 | 82 | 148 | 0.0 | 0.9 | 0.00 | 0.00 | 0.00 | 80 | 1022.5 |
| 20260905175508 | 82 | 146 | 0.0 | 0.9 | 0.00 | 0.00 | 0.00 | 80 | 1022.5 |
| 20260905175010 | 82 | 150 | 0.0 | 2.6 | 0.00 | 0.00 | 0.00 | 80 | 1022.5 |
| 20260905174519 | 82 | 145 | 0.0 | 2.6 | 0.00 | 0.00 | 0.00 | 79 | 1022.4 |
| 20260905174006 | 82 | 156 | 0.9 | 2.6 | 0.00 | 0.00 | 0.00 | 79 | 1022.5 |
| 20260905173505 | 82 | 153 | 0.0 | 0.9 | 0.00 | 0.00 | 0.00 | 79 | 1022.4 |
| 20260905173017 | 82 | 144 | 0.0 | 0.9 | 0.00 | 0.00 | 0.00 | 79 | 1022.4 |
| 20260905172506 | 83 | 135 | 0.0 | 3.5 | 0.00 | 0.00 | 0.00 | 79 | 1022.4 |
| 20260905172009 | 83 | 256 | 0.0 | 3.5 | 0.00 | 0.00 | 0.00 | 79 | 1022.3 |
| 20260905171519 | 83 | 76 | 0.0 | 0.9 | 0.00 | 0.00 | 0.00 | 79 | 1022.2 |
| 20260905171007 | 83 | 258 | 0.0 | 0.9 | 0.00 | 0.00 | 0.00 | 78 | 1022.2 |
| 20260905170510 | 83 | 259 | 0.0 | 3.5 | 0.00 | 0.00 | 0.00 | 78 | 1022.2 |
| 20260905170018 | 83 | 249 | 0.0 | 3.5 | 0.00 | 0.00 | 0.00 | 78 | 1022.2 |
| 20260905165508 | 83 | 239 | 0.0 | 4.3 | 0.00 | 0.00 | 0.00 | 78 | 1022.1 |
| 20260905165013 | 83 | 221 | 0.9 | 5.2 | 0.00 | 0.00 | 0.00 | 77 | 1022.1 |
| 20260905164521 | 83 | 259 | 0.9 | 3.5 | 0.00 | 0.00 | 0.00 | 77 | 1022.0 |
| 20260905164013 | 83 | 261 | 0.0 | 7.0 | 0.00 | 0.00 | 0.00 | 76 | 1022.1 |
| 20260905163511 | 83 | 267 | 0.9 | 7.0 | 0.00 | 0.00 | 0.00 | 76 | 1022.1 |
| 20260905163021 | 83 | 263 | 0.9 | 5.2 | 0.00 | 0.00 | 0.00 | 76 | 1022.1 |
| 20260905162508 | 83 | 252 | 0.0 | 5.2 | 0.00 | 0.00 | 0.00 | 75 | 1022.0 |
| 20260905162010 | 84 | 262 | 0.0 | 7.0 | 0.00 | 0.00 | 0.00 | 75 | 1022.0 |
| 20260905161519 | 84 | 254 | 0.9 | 7.0 | 0.00 | 0.00 | 0.00 | 75 | 1022.0 |
| 20260905161012 | 84 | 240 | 0.0 | 6.1 | 0.00 | 0.00 | 0.00 | 74 | 1022.0 |
| 20260905160510 | 84 | 241 | 0.9 | 6.1 | 0.00 | 0.00 | 0.00 | 73 | 1022.1 |
| 20260905160020 | 85 | 259 | 0.9 | 5.2 | 0.00 | 0.00 | 0.00 | 73 | 1022.0 |
| 20260905155511 | 85 | 256 | 0.9 | 5.2 | 0.00 | 0.00 | 0.00 | 72 | 1022.1 |
| 20260905155010 | 86 | 248 | 0.0 | 5.2 | 0.00 | 0.00 | 0.00 | 71 | 1022.0 |
| 20260905154618 | 86 | 263 | 0.0 | 6.1 | 0.00 | 0.00 | 0.00 | 71 | 1022.1 |
| 20260905154013 | 86 | 283 | 0.0 | 6.1 | 0.00 | 0.00 | 0.00 | 70 | 1022.2 |
| 20260905153513 | 87 | 257 | 0.9 | 3.5 | 0.00 | 0.00 | 0.00 | 68 | 1022.1 |
| 20260905153024 | 88 | 244 | 0.9 | 3.5 | 0.00 | 0.00 | 0.00 | 67 | 1022.2 |
| 20260905152509 | 88 | 260 | 0.9 | 5.2 | 0.00 | 0.00 | 0.00 | 66 | 1022.2 |
| 20260905152012 | 88 | 245 | 0.9 | 6.1 | 0.00 | 0.00 | 0.00 | 66 | 1022.1 |
| 20260905151530 | 89 | 271 | 0.9 | 7.0 | 0.00 | 0.00 | 0.00 | 65 | 1022.1 |
| 20260905151010 | 89 | 248 | 0.9 | 7.0 | 0.00 | 0.00 | 0.00 | 65 | 1022.2 |
| 20260905150513 | 89 | 233 | 0.0 | 7.0 | 0.00 | 0.00 | 0.00 | 65 | 1022.1 |
| 20260905150020 | 90 | 261 | 0.9 | 7.0 | 0.00 | 0.00 | 0.00 | 64 | 1022.1 |
| 20260905145508 | 90 | 261 | 0.0 | 5.2 | 0.00 | 0.00 | 0.00 | 65 | 1022.1 |
| 20260905145010 | 90 | 250 | 0.0 | 5.2 | 0.00 | 0.00 | 0.00 | 65 | 1022.2 |
| 20260905144523 | 90 | 257 | 0.0 | 7.8 | 0.00 | 0.00 | 0.00 | 65 | 1022.1 |
| 20260905144013 | 90 | 252 | 0.9 | 8.7 | 0.00 | 0.00 | 0.00 | 66 | 1022.1 |
| 20260905143515 | 90 | 243 | 0.0 | 8.7 | 0.00 | 0.00 | 0.00 | 67 | 1022.1 |
| 20260905143026 | 90 | 240 | 0.0 | 5.2 | 0.00 | 0.00 | 0.00 | 67 | 1022.2 |
| 20260905142512 | 90 | 248 | 0.0 | 5.2 | 0.00 | 0.00 | 0.00 | 67 | 1022.2 |
| 20260905142013 | 90 | 161 | 0.0 | 7.8 | 0.00 | 0.00 | 0.00 | 67 | 1022.2 |
| 20260905141527 | 90 | 254 | 0.9 | 7.8 | 0.00 | 0.00 | 0.00 | 66 | 1022.2 |
| 20260905141014 | 90 | 257 | 0.9 | 7.0 | 0.00 | 0.00 | 0.00 | 66 | 1022.2 |
| 20260905140513 | 90 | 265 | 1.7 | 7.0 | 0.00 | 0.00 | 0.00 | 65 | 1022.2 |
| 20260905140032 | 90 | 267 | 0.9 | 7.0 | 0.00 | 0.00 | 0.00 | 65 | 1022.2 |
| 20260905135512 | 90 | 237 | 0.0 | 7.0 | 0.00 | 0.00 | 0.00 | 65 | 1022.2 |
| 20260905135011 | 91 | 267 | 0.0 | 7.8 | 0.00 | 0.00 | 0.00 | 65 | 1022.2 |
| 20260905134523 | 91 | 223 | 0.0 | 7.8 | 0.00 | 0.00 | 0.00 | 65 | 1022.2 |
| 20260905134011 | 91 | 263 | 0.9 | 7.8 | 0.00 | 0.00 | 0.00 | 65 | 1022.2 |
| 20260905133513 | 91 | 254 | 0.0 | 6.1 | 0.00 | 0.00 | 0.00 | 65 | 1022.4 |
| 20260905133023 | 91 | 244 | 0.0 | 7.0 | 0.00 | 0.00 | 0.00 | 65 | 1022.4 |
| 20260905132514 | 91 | 245 | 1.7 | 7.0 | 0.00 | 0.00 | 0.00 | 64 | 1022.4 |
| 20260905132005 | 91 | 242 | 0.0 | 7.0 | 0.00 | 0.00 | 0.00 | 64 | 1022.5 |
| 20260905131506 | 91 | 248 | 0.0 | 7.0 | 0.00 | 0.00 | 0.00 | 65 | 1022.4 |
| 20260905131008 | 91 | 257 | 0.9 | 7.8 | 0.00 | 0.00 | 0.00 | 64 | 1022.4 |
| 20260905130505 | 91 | 211 | 1.7 | 7.8 | 0.00 | 0.00 | 0.00 | 64 | 1022.4 |
| 20260905130013 | 91 | 218 | 1.7 | 4.3 | 0.00 | 0.00 | 0.00 | 64 | 1022.4 |
| 20260905125507 | 91 | 267 | 0.9 | 5.2 | 0.00 | 0.00 | 0.00 | 64 | 1022.5 |
| 20260905125006 | 91 | 255 | 0.9 | 5.2 | 0.00 | 0.00 | 0.00 | 64 | 1022.4 |
| 20260905124522 | 91 | 219 | 0.9 | 6.1 | 0.00 | 0.00 | 0.00 | 64 | 1022.4 |
| 20260905124009 | 91 | 207 | 0.9 | 6.1 | 0.00 | 0.00 | 0.00 | 64 | 1022.4 |
| 20260905123511 | 91 | 240 | 0.0 | 8.7 | 0.00 | 0.00 | 0.00 | 64 | 1022.4 |
| 20260905123023 | 91 | 238 | 0.0 | 8.7 | 0.00 | 0.00 | 0.00 | 64 | 1022.4 |